Flag for Indonesia Weather past 2 weeks in Medan, North Sumatra, Indonesia

Now
75 °F

Haze.


Feels Like: 74 °F
Forecast: 75 / 83 °F
Wind: No wind

Location: Medan / Polonia

Current Time: Sep 2, 2014 at 3:13:44 AM

Latest Report: Sep 2, 2014 at 2:00 AM


Visibility: 3 mi

Pressure: 29.83 "Hg

Humidity: 94%

Dew point: 73 °F

Location of MedanLocation

Historic Weather in Medan — Graph

°F

Medan temperature yesterday

Maximum temperature yesterday: 88 °F (at 1:00 PM)
Minimum temperature yesterday: 75 °F (at 6:00 AM)
Average temperature yesterday: 82 °F

Past Weeks' High & Low Weather Summary

 TemperatureHumidityPressure
High90 °F (Aug 30, 2:00 PM)100% (Aug 18, 10:00 PM)29.92 "Hg (Aug 18, 10:00 PM)
Low72 °F (Aug 25, 9:00 PM)59% (Aug 20, 11:00 AM)29.68 "Hg (Aug 22, 4:30 PM)
Average80 °F85%29.80 "Hg
* Reported Aug 18 8:00 AM — Sep 2 2:00 AM, Medan, Weather by CustomWeather, © 2014

Note: Actual official high and low records may vary slightly from our data, if they occured in-between our weather recording intervals... More about our weather records

Advertising

Medan weather history for previous 24 hours

 ConditionsComfort  
Time TempWeatherWind HumidityBarometerVisibility
2:00 AM
Sep 2
75 °FHaze.No wind94%29.83 "Hg3 mi
1:00 AM75 °FHaze.6 mph94%29.83 "Hg3 mi
12:30 AM75 °FHaze.3 mph94%29.83 "Hg3 mi
12:00 AM77 °FHaze.9 mph89%29.86 "Hg3 mi
11:00 PM
Sep 1
81 °FHaze.5 mph94%29.83 "Hg2 mi
9:30 PM82 °FHaze.3 mph89%29.80 "Hg3 mi
9:00 PM81 °FHaze.2 mph94%29.77 "Hg3 mi
8:30 PM81 °FPassing clouds.2 mph94%29.77 "Hg3 mi
8:00 PM81 °FPassing clouds.2 mph94%29.77 "Hg3 mi
7:30 PM82 °FPassing clouds.No wind84%29.74 "Hg3 mi
7:00 PM82 °FPassing clouds.5 mph84%29.74 "Hg3 mi
6:30 PM84 °FPassing clouds.6 mph79%29.71 "Hg3 mi
6:00 PM84 °FScattered clouds.8 mph79%29.71 "Hg4 mi
5:30 PM86 °FScattered clouds.9 mph75%29.71 "Hg4 mi
5:00 PM86 °FScattered clouds.9 mph75%29.68 "Hg4 mi
4:30 PM86 °FScattered clouds.9 mph75%29.68 "Hg4 mi
4:00 PM88 °FScattered clouds.9 mph70%29.71 "Hg4 mi
3:30 PM88 °FScattered clouds.10 mph70%29.71 "Hg4 mi
3:00 PM86 °FPartly sunny.8 mph75%29.71 "Hg4 mi
2:30 PM88 °FScattered clouds.7 mph66%29.74 "Hg4 mi
2:00 PM88 °FWarm.8 mph70%29.74 "HgN/A
1:30 PM86 °FPartly sunny.8 mph75%29.77 "Hg4 mi
1:00 PM88 °FPartly sunny.7 mph66%29.77 "Hg4 mi
12:30 PM86 °FPartly sunny.6 mph75%29.80 "Hg4 mi
12:00 PM84 °FScattered clouds.6 mph74%29.80 "Hg4 mi
11:30 AM84 °FScattered clouds.6 mph74%29.80 "Hg3 mi
11:00 AM84 °FScattered clouds.3 mph74%29.80 "Hg3 mi
10:30 AM82 °FScattered clouds.3 mph74%29.80 "Hg2 mi
10:00 AM82 °FPartly sunny.5 mph79%29.83 "Hg2 mi
9:30 AM79 °FPartly sunny.2 mph89%29.83 "Hg2 mi
9:00 AM79 °FPartly sunny.5 mph89%29.83 "Hg2 mi
8:30 AM79 °FPartly sunny.5 mph89%29.80 "Hg2 mi
8:00 AM79 °FPartly sunny.2 mph89%29.80 "Hg2 mi
7:30 AM77 °FPartly sunny.2 mph94%29.80 "Hg2 mi
6:30 AM75 °FHaze.3 mph100%29.77 "Hg2 mi
6:00 AM75 °FHaze.3 mph94%29.77 "Hg3 mi
5:00 AM77 °FHaze.2 mph94%29.77 "Hg3 mi
4:00 AM77 °FHaze.3 mph94%29.77 "Hg3 mi
3:30 AM77 °FHaze.No wind94%29.77 "Hg3 mi
Weather by CustomWeather, © 2014

See weather overviewHow to use our weather pages